When you browse on this site, cookies collect data to enhance your experience and personalize the content and advertising you see.
Visit our Privacy Policy to learn more. By continuing to use the site, you agree to this use of cookies and data.
  • In Lithuania
  • List of Countries
  • For 7 days
  • Water Temperature
  • Weather Map
  • Weather Widgets
  • user-avatar
    Login

    Hourly Weather Konstantyna

    Today, 14 October, Monday

    Time Temperature Precipitation Wind Pressure Humidity
    00:00 +20°C° 0 mm 2 mps 712 mmHg 58%
    01:00 +20°C° 0 mm 2 mps 712 mmHg 59%
    02:00 +20°C° 0 mm 2 mps 711 mmHg 60%
    03:00 +19°C° 0 mm 2 mps 711 mmHg 61%
    04:00 +19°C° 0 mm 2 mps 711 mmHg 62%
    05:00 +19°C° 0 mm 2 mps 711 mmHg 63%
    06:00 +19°C° 0 mm 2 mps 711 mmHg 64%
    07:00 +21°C° 0 mm 2 mps 711 mmHg 57%
    08:00 +24°C° 0 mm 3 mps 711 mmHg 50%
    09:00 +26°C° 0 mm 3 mps 712 mmHg 43%
    10:00 +27°C° 0 mm 4 mps 712 mmHg 39%
    11:00 +29°C° 0 mm 4 mps 712 mmHg 34%
    12:00 +30°C° 0 mm 4 mps 711 mmHg 30%
    13:00 +30°C° 0 mm 4 mps 711 mmHg 29%
    14:00 +30°C° 0 mm 4 mps 711 mmHg 28%
    15:00 +30°C° 0 mm 4 mps 710 mmHg 27%
    16:00 +29°C° 0 mm 4 mps 710 mmHg 33%
    17:00 +27°C° 0 mm 4 mps 710 mmHg 38%
    18:00 +25°C° 0 mm 3 mps 710 mmHg 44%
    19:00 +25°C° 0 mm 3 mps 710 mmHg 46%
    20:00 +24°C° 0 mm 3 mps 710 mmHg 48%
    21:00 +24°C° 0 mm 2 mps 711 mmHg 50%
    22:00 +23°C° 0 mm 2 mps 711 mmHg 51%
    23:00 +23°C° 0 mm 2 mps 711 mmHg 53%

    Tomorrow, 15 October, Tuesday

    Time Temperature Precipitation Wind Pressure Humidity
    00:00 +23°C° 0 mm 2 mps 710 mmHg 54%
    01:00 +23°C° 0.3 mm 2 mps 710 mmHg 58%
    02:00 +22°C° 0.3 mm 1 mps 710 mmHg 63%
    03:00 +22°C° 0.3 mm 1 mps 710 mmHg 67%
    04:00 +21°C° 0.3 mm 1 mps 711 mmHg 70%
    05:00 +21°C° 0.3 mm 1 mps 711 mmHg 72%
    06:00 +18°C° 0.3 mm 0 mps 711 mmHg 74%
    07:00 +21°C° 0.3 mm 1 mps 711 mmHg 69%
    08:00 +22°C° 0.3 mm 1 mps 712 mmHg 63%
    09:00 +23°C° 0.3 mm 1 mps 712 mmHg 58%
    10:00 +24°C° 0.1 mm 2 mps 712 mmHg 56%
    11:00 +25°C° 0.1 mm 2 mps 712 mmHg 54%
    12:00 +25°C° 0.1 mm 3 mps 712 mmHg 52%
    13:00 +25°C° 0.2 mm 3 mps 712 mmHg 55%
    14:00 +24°C° 0.2 mm 3 mps 712 mmHg 59%
    15:00 +24°C° 0.2 mm 3 mps 711 mmHg 62%
    16:00 +21°C° 0.8 mm 3 mps 712 mmHg 68%
    17:00 +20°C° 0.8 mm 3 mps 712 mmHg 74%
    18:00 +19°C° 0.8 mm 3 mps 712 mmHg 79%
    19:00 +19°C° 0.5 mm 3 mps 712 mmHg 80%
    20:00 +19°C° 0.5 mm 2 mps 712 mmHg 80%
    21:00 +18°C° 0.5 mm 2 mps 713 mmHg 81%
    22:00 +19°C° 0 mm 1 mps 713 mmHg 81%
    23:00 +19°C° 0 mm 1 mps 713 mmHg 82%

    Day after tomorrow, 16 October, Wednesday

    Time Temperature Precipitation Wind Pressure Humidity
    00:00 +17°C° 0 mm 0 mps 712 mmHg 82%
    01:00 +17°C° 0 mm 0 mps 712 mmHg 82%
    02:00 +19°C° 0 mm 1 mps 712 mmHg 82%
    03:00 +19°C° 0 mm 1 mps 712 mmHg 82%
    04:00 +19°C° 0 mm 1 mps 712 mmHg 84%
    05:00 +16°C° 0 mm 0 mps 712 mmHg 86%
    06:00 +16°C° 0 mm 0 mps 712 mmHg 88%
    07:00 +17°C° 0 mm 0 mps 712 mmHg 81%
    08:00 +18°C° 0 mm 0 mps 712 mmHg 74%
    09:00 +20°C° 0 mm 0 mps 713 mmHg 67%
    10:00 +23°C° 0.1 mm 1 mps 713 mmHg 62%
    11:00 +24°C° 0.1 mm 2 mps 713 mmHg 56%
    12:00 +25°C° 0.1 mm 2 mps 713 mmHg 51%
    13:00 +25°C° 0.3 mm 2 mps 712 mmHg 51%
    14:00 +25°C° 0.3 mm 2 mps 712 mmHg 50%
    15:00 +26°C° 0.3 mm 3 mps 712 mmHg 50%
    16:00 +24°C° 0.6 mm 2 mps 712 mmHg 58%
    17:00 +23°C° 0.6 mm 2 mps 712 mmHg 66%
    18:00 +20°C° 0.6 mm 2 mps 711 mmHg 74%
    19:00 +21°C° 0.2 mm 1 mps 712 mmHg 76%
    20:00 +21°C° 0.2 mm 1 mps 712 mmHg 78%
    21:00 +20°C° 0.2 mm 1 mps 712 mmHg 81%
    22:00 +18°C° 0 mm 0 mps 712 mmHg 81%
    23:00 +18°C° 0 mm 0 mps 712 mmHg 80%

    17 October, Thursday

    Time Temperature Precipitation Wind Pressure Humidity
    00:00 +18°C° 0 mm 0 mps 712 mmHg 80%
    01:00 +18°C° 0 mm 0 mps 711 mmHg 80%
    02:00 +18°C° 0 mm 0 mps 711 mmHg 79%
    03:00 +18°C° 0 mm 0 mps 711 mmHg 79%
    04:00 +18°C° 0 mm 0 mps 711 mmHg 78%
    05:00 +18°C° 0 mm 0 mps 711 mmHg 77%
    06:00 +19°C° 0 mm 1 mps 711 mmHg 77%
    07:00 +21°C° 0 mm 1 mps 711 mmHg 69%
    08:00 +23°C° 0 mm 1 mps 712 mmHg 60%
    09:00 +25°C° 0 mm 2 mps 713 mmHg 52%
    10:00 +26°C° 0 mm 2 mps 712 mmHg 49%
    11:00 +27°C° 0 mm 3 mps 712 mmHg 45%
    12:00 +28°C° 0 mm 4 mps 712 mmHg 41%
    13:00 +28°C° 0 mm 4 mps 712 mmHg 43%
    14:00 +28°C° 0 mm 4 mps 712 mmHg 44%
    15:00 +27°C° 0 mm 4 mps 712 mmHg 45%
    16:00 +26°C° 0.3 mm 3 mps 711 mmHg 53%
    17:00 +24°C° 0.3 mm 3 mps 711 mmHg 62%
    18:00 +23°C° 0.3 mm 2 mps 711 mmHg 70%
    19:00 +22°C° 0.1 mm 1 mps 711 mmHg 73%
    20:00 +22°C° 0.1 mm 1 mps 712 mmHg 75%
    21:00 +19°C° 0.1 mm 0 mps 712 mmHg 78%
    22:00 +19°C° 0 mm 0 mps 712 mmHg 77%
    23:00 +19°C° 0 mm 0 mps 711 mmHg 76%

    18 October, Friday

    Time Temperature Precipitation Wind Pressure Humidity
    00:00 +21°C° 0 mm 1 mps 711 mmHg 75%
    01:00 +21°C° 0 mm 1 mps 711 mmHg 74%
    02:00 +20°C° 0 mm 1 mps 711 mmHg 73%
    03:00 +20°C° 0 mm 1 mps 711 mmHg 72%
    04:00 +20°C° 0 mm 1 mps 711 mmHg 71%
    05:00 +20°C° 0 mm 1 mps 711 mmHg 70%
    06:00 +20°C° 0 mm 1 mps 711 mmHg 69%
    07:00 +22°C° 0 mm 1 mps 711 mmHg 61%
    08:00 +24°C° 0 mm 1 mps 711 mmHg 54%
    09:00 +26°C° 0 mm 2 mps 712 mmHg 46%
    10:00 +27°C° 0 mm 2 mps 712 mmHg 43%
    11:00 +28°C° 0 mm 3 mps 712 mmHg 39%
    12:00 +29°C° 0 mm 4 mps 712 mmHg 35%
    13:00 +29°C° 0 mm 4 mps 711 mmHg 38%
    14:00 +28°C° 0 mm 4 mps 711 mmHg 41%
    15:00 +28°C° 0 mm 4 mps 711 mmHg 44%
    16:00 +26°C° 0.4 mm 3 mps 711 mmHg 55%
    17:00 +24°C° 0.4 mm 2 mps 711 mmHg 65%
    18:00 +22°C° 0.4 mm 1 mps 711 mmHg 75%
    19:00 +22°C° 0.5 mm 1 mps 711 mmHg 76%
    20:00 +22°C° 0.5 mm 1 mps 711 mmHg 76%
    21:00 +22°C° 0.5 mm 1 mps 711 mmHg 77%
    22:00 +22°C° 0.3 mm 1 mps 711 mmHg 75%
    23:00 +22°C° 0.3 mm 1 mps 711 mmHg 74%

    19 October, Saturday

    Time Temperature Precipitation Wind Pressure Humidity
    00:00 +22°C° 0.3 mm 1 mps 711 mmHg 72%
    01:00 +21°C° 0 mm 1 mps 710 mmHg 71%
    02:00 +21°C° 0 mm 1 mps 710 mmHg 70%
    03:00 +21°C° 0 mm 1 mps 710 mmHg 69%
    04:00 +21°C° 0 mm 1 mps 710 mmHg 70%
    05:00 +20°C° 0 mm 1 mps 710 mmHg 71%
    06:00 +20°C° 0 mm 1 mps 710 mmHg 71%
    07:00 +22°C° 0 mm 1 mps 710 mmHg 63%
    08:00 +24°C° 0 mm 1 mps 711 mmHg 54%
    09:00 +26°C° 0 mm 1 mps 711 mmHg 45%
    10:00 +27°C° 0 mm 2 mps 711 mmHg 41%
    11:00 +28°C° 0 mm 3 mps 711 mmHg 37%
    12:00 +30°C° 0 mm 4 mps 711 mmHg 32%
    13:00 +30°C° 0 mm 4 mps 711 mmHg 33%
    14:00 +29°C° 0 mm 4 mps 710 mmHg 33%
    15:00 +29°C° 0 mm 4 mps 710 mmHg 33%
    16:00 +28°C° 0 mm 3 mps 710 mmHg 38%
    17:00 +26°C° 0 mm 3 mps 710 mmHg 43%
    18:00 +25°C° 0 mm 2 mps 710 mmHg 48%
    19:00 +24°C° 0 mm 2 mps 710 mmHg 48%
    20:00 +24°C° 0 mm 2 mps 710 mmHg 48%
    21:00 +24°C° 0 mm 2 mps 710 mmHg 48%
    22:00 +23°C° 0 mm 2 mps 710 mmHg 48%
    23:00 +23°C° 0 mm 2 mps 710 mmHg 49%
    Show more